Zurück zum Katalog

DELTA 1 DEB

AktivLEO
NORAD 10876·DEBRIS·🇺🇸 United States

Gestartet Jul 29, 1976 von Vandenberg Space Force Base

Loading…

Nächste Überflüge (nächste 24 Stunden)

TLE

AktuellSource: Space-Track

Epoche: Sep 14, 2026, 00:46 UTC

1 10876U 76077DE  26257.03216579  .00000008  00000-0  37232-3 0  9992
2 10876 102.6059 285.4188 0101338 107.6198 281.0855 12.48809227282184

Verfolge DELTA 1 DEB in Echtzeit mit AllMySat

Download on the App Store